Regional Weather Roundup
Issued by NWS Goodland, KS

Home | Current Version | Previous Version | Graphics & Text | Print | Product List | Glossary On
Versions: 1 2 3 4 5 6 7 8 9 10 11 12 13 14 15 16 17 18 19 20 21 22 23 24 25 26 27 28 29 30 31 32 33 34 35 36 37 38 39 40 41 42 43 44 45 46 47 48 49 50
000
ASUS43 KGLD 011059
RWRGLD

GOODLAND FORECAST AREA HOURLY WEATHER ROUNDUP
NATIONAL WEATHER SERVICE GOODLAND KS
500 AM MDT MON SEP 01 2014

...OFFICIAL OBSERVATIONS...

CITY           SKY/WX    TMP DP  RH WIND       PRES   REMARKS
GOODLAND KS    PTCLDY    52  50  93 CALM      30.00R
HILL CITY KS   CLEAR     59  55  87 NW8       29.90R
IMPERIAL NEB   PTCLDY    54  49  83 W5        29.96S
MCCOOK NEB     PTCLDY    55  52  89 NW8       29.94R
AKRON CO       MOCLDY    53  47  79 SW6       30.03S
BURLINGTON CO  PTCLDY    51  48  89 NW6       30.02R
LIMON CO       CLOUDY    53  46  77 W7        30.07S
$$

...UNOFFICIAL OBSERVATIONS...

CITY           SKY/WX    TMP DP  RH WIND       PRES   REMARKS
COLBY KS       CLEAR     54  54 100 NW8       29.97R
GOVE KS          N/A     58  32  37 CALM        N/A
NORTON KS      CLEAR     57  52  82 NW10      29.89R
SHARON SPRINGS   N/A     56  51  85 N9          N/A
WAKEENEY KS      N/A     60  58  91 MISG        N/A
KIT CARSON CO    N/A     58  47  68 N5          N/A
YUMA CO          N/A     53  49  86 CALM        N/A
$$


USA.gov is the U.S. government's official web portal to all federal, state and local government web resources and services.